Showing default

COSMOS 84, 1574

Orbit data source: Space-Track

COSMOS 84, 1574 is a payload satellite owned by OKB-10 (CIS) in LEO that was launched on Fri, 03 Sep 1965 UTC via a KOSMOS 65S3 launch vehicle from the Tyuratam Missile And Space Complex (TTMTR). Payloads include a variety of satellites, spacecraft, and rockets equipped with specific instruments for various scientific and technological missions. These include communications satellites like Starlink; space stations such as the ISS; scientific satellites like the Hubble; Earth observation satellites from companies like Planet Labs, Umbra, and HawkEye 360; GPS; miniature CubeSats for education and research; and military/defense satellites.

Loading next visibility...
COSMOS 84 details
Identifier
1574, 1965-070E
Orbit
LEO
Last TLE update17 hours ago
Origin
Flag of CISOKB-10 (CIS)
ManufacturerOKB-10
MissionDefense Communications
Bus & MotorSTRELA-1 11F610, Unknown motor
Mass50 kg wet, 50 kg dry
Launch date (UTC)
1965-09-03 (59 years ago)
Launch vehicle
KOSMOS 65S3
Launch site
Tyuratam Missile And Space Complex (TTMTR)
Object type
Payload
Rocket body
Debris
Shape & HBRPoly, 0.8 m
Radar Cross Section0.731 m², Medium (>0.1 m² and < 1m²)

Expand to show TLE details & history

TLE from 17 hours ago
0 COSMOS 84
1 01574U 65070E   25039.92731356 -.00000070  00000-0  16502-3 0  9995
2 01574  56.0536 285.8609 0062013 307.5976 159.8905 12.37029830685394
Epoch: 2025-02-08T22:15Z
Definitive object data (Epoch: 2025-02-08T22:15:19.891Z)
Latitude52.32677°
Longitude-67.4175°
Altitude1,572.008 km
Speed7.067 km/s
True Right ascension03h 02m 44s
True Declination52° 10' 38"
Sunlit
Object was in daylight at TLE epoch
Visualization TLE readout
Latitude56.1191°
Longitude-103.10756°
Altitude1,563.827 km
Speed7.075 km/s
Apparent Right ascension03h 27m 09s
Apparent Declination19° 06' 39"
Sunlit
Object is in daylight
Visualization observer readout
Local Sidereal Time17:55:37
Azimuth37.82° NE
Elevation-21.58°
Doppler factor1
Orbital elements
Apogee altitude1,568.017 km
Perigee altitude1,470.071 km
Semi-major axis7,897.181 km
Eccentricity0.0062013
Inclination56.0536°
RAAN285.8609°
Arg. of periapsis307.5976°
True anomaly160.13305°
Mean anomaly159.8905°
Eccentric anomaly160.01195°
Mean motion3.09268 °/min
BSTAR0.00016502
Orbital period116.4 mins
Loading maneuver chart data...
Loading historical data...
Loading historical data...
Loading historical data...
Loading historical data...
Loading historical data...
Loading historical data...
Loading historical data...

COSMOS 84 Visibility forecast

Observer location: undefined°, undefined

Span
Click to sort rows by Start time (UTC) header in descending order
Start Az.
Max El. time (UTC)
Max El. Az.
Max El.
End time (UTC)
End Az.
15 mins2025-02-09 17:09:10.427Z179.091° S2025-02-09 17:17:10.427Z116.553° SE29.011°2025-02-09 17:24:10.427Z62.18° ENE
17 mins2025-02-09 19:10:10.427Z235.484° WSW2025-02-09 19:18:10.427Z324.416° NNW43.661°2025-02-09 19:27:10.427Z43.745° NE
14 mins2025-02-09 21:15:10.427Z290.105° WNW2025-02-09 21:21:10.427Z341.711° N28.869°2025-02-09 21:29:10.427Z44.504° NE
14 mins2025-02-09 23:19:10.427Z317.362° NNW2025-02-09 23:26:10.427Z14.747° NNE27.799°2025-02-09 23:33:10.427Z69.246° E
16 mins2025-02-10 01:22:10.427Z320.203° NNW2025-02-10 01:29:10.427Z25.892° NE41.813°2025-02-10 01:38:10.427Z118.155° SE
15 mins2025-02-10 03:24:10.427Z298.798° NW2025-02-10 03:31:10.427Z236.125° WSW33.686°2025-02-10 03:39:10.427Z173.119° S
|